Location: Dortmund
(51.5019°N, 7.6520°E)
Time: 16:54:44
(UTC+01:00)

ISS - Pass Details

Date: 21 March 2017
Orbit: 399 x 409 km, 51.6° (Epoch: 25 March)

Event Time Altitude Azimuth Distance (km) Brightness Sun altitude
Exits shadow 04:36:50 34° 179° (S) 698 -2.9 -17.9°
Drops below altitude 10° 04:39:19 10° 138° (SE) 1,471 -0.8 -17.5°
Sets 04:41:29 0° 130° (SE) 2,330 0.4 -17.2°
